CAPE
714 484 303 186 173 154 94 17 0 0 0 0 0 0 0 17 22 35 37 39 12 90 63 132 154 100 77 104 113 145 73 45 25 22 494 573 227 309 223 313 328 208 254
171 137 55 71 54 10 0 0 0 0 0 0 0 1 12 11 14 36 36 68 65 108 94 148 141 120 117 132 179 153 74 48 25 47 222 457 257 180 233 97 207 137 32
82 35 24 10 7 0 0 0 0 0 0 0 0 9 42 25 38 37 78 68 83 101 99 68 119 117 113 110 123 97 57 41 5 53 85 107 132 125 89 71 59 2 6
95 46 43 34 35 1 0 0 0 0 0 0 27 34 65 92 84 86 72 73 63 104 125 90 129 112 90 62 31 43 45 5 10 20 72 26 2 9 22 41 27 31 26
84 95 89 90 41 3 0 0 0 0 1 26 53 51 29 30 56 50 24 33 58 60 123 107 114 121 65 48 20 41 32 5 13 11 20 56 10 7 10 35 4 5 1
198 102 117 92 12 7 3 0 0 5 14 51 46 24 0 32 67 54 43 45 54 51 88 70 50 58 33 38 40 13 1 23 10 0 1 0 26 0 13 3 8 0 0
192 146 133 36 0 21 10 1 10 13 25 45 32 9 0 1 62 67 61 29 35 64 44 53 30 21 19 14 5 1 1 1 0 2 8 13 6 13 23 2 3 0 0
205 149 91 2 1 21 22 10 7 25 34 41 20 0 0 19 107 83 47 26 42 23 37 42 14 17 15 11 10 0 0 0 2 6 19 3 9 3 3 2 0 0 5
120 79 48 0 0 1 2 9 10 18 30 26 7 0 0 36 134 112 58 19 35 33 35 13 12 7 8 26 28 2 2 1 3 3 5 5 3 3 6 0 0 1 1
71 63 59 1 0 0 0 0 6 0 7 14 6 0 2 30 108 63 23 16 33 10 28 14 5 3 2 1 4 10 6 8 0 0 2 3 4 4 4 0 0 0 0
77 88 76 23 0 0 0 0 0 7 0 3 0 0 0 16 53 35 21 2 1 0 0 0 1 0 0 1 8 9 8 2 2 9 7 16 9 17 16 0 0 0 0
56 84 70 44 1 0 0 0 2 1 0 0 0 0 0 0 9 23 3 2 2 0 2 1 0 1 0 5 6 2 3 5 10 10 12 4 1 2 1 0 0 0 0
35 36 68 41 2 0 0 0 4 17 0 0 0 0 0 0 0 19 0 0 0 12 9 4 0 3 1 1 4 0 4 0 0 2 0 0 0 0 0 0 0 0 0
23 27 82 26 30 40 10 0 68 17 8 0 0 0 0 0 0 1 0 0 0 0 2 1 3 1 0 0 4 9 8 3 2 0 0 0 0 0 0 0 0 0 0
22 32 85 72 97 98 71 69 36 0 0 0 0 0 0 0 0 0 0 0 1 2 3 2 2 12 2 0 0 4 6 5 10 0 0 0 0 0 0 0 0 2 1
26 43 75 109 133 65 77 27 22 10 9 0 0 0 0 0 0 0 1 0 0 0 2 3 9 5 5 0 0 0 0 0 0 0 0 0 0 0 0 0 0 4 4
21 56 91 148 106 110 29 33 41 9 11 39 17 0 0 0 0 0 0 0 0 0 0 2 1 2 2 0 0 0 0 0 0 0 0 0 0 0 0 0 0 0 0
8 89 123 121 149 153 65 0 5 0 2 12 90 87 27 0 0 0 0 0 0 0 0 0 0 0 0 0 0 0 0 0 0 0 0 0 0 0 0 0 0 0 0
0 16 88 106 170 178 140 63 0 0 0 0 125 188 147 33 2 12 9 0 0 0 0 0 0 0 0 0 0 0 0 0 0 0 0 0 0 0 0 0 0 0 0
0 0 35 106 170 180 186 122 86 17 13 0 55 208 242 143 41 7 22 20 0 0 0 0 0 0 0 0 0 0 0 0 0 0 0 0 0 0 0 0 0 0 0
0 0 17 37 87 146 165 151 110 71 32 29 59 54 139 230 116 64 0 7 8 7 0 0 0 0 0 0 0 0 0 0 0 0 0 0 0 0 12 19 40 34 40
5 0 0 10 40 72 131 100 67 50 43 39 43 64 118 126 166 132 64 0 0 3 9 7 0 0 0 0 0 0 0 0 0 0 0 0 0 0 0 0 2 7 10
71 42 3 0 27 83 110 104 83 41 1 6 24 35 53 80 80 99 104 53 6 0 4 9 10 9 0 0 0 0 0 0 0 0 0 0 0 2 0 0 0 0 0
202 120 117 72 98 130 125 111 109 103 112 86 0 0 1 13 56 58 48 47 23 6 0 0 0 0 0 0 0 0 0 0 0 0 0 10 20 20 17 22 28 33 20
342 373 257 201 165 131 138 136 114 100 113 101 102 116 66 8 0 2 22 11 1 0 0 0 0 0 0 0 0 0 0 0 0 8 22 33 35 32 28 21 18 19 11
198 389 447 458 410 355 315 277 230 201 166 170 169 147 140 194 171 85 0 0 0 0 0 0 0 0 0 0 0 0 0 0 0 0 0 0 0 28 35 9 0 0 0
CIN
-84 -88 -102 -127 -110 -96 -117 -142 -0 -0 -0 -0 -0 -0 -0 -15 -28 -21 -16 -25 -55 -48 -57 -40 -35 -43 -44 -20 -39 -27 -39 -41 -60 -35 -0 -0 -0 -0 -8 -0 -0 -0 -2
-124 -126 -221 -185 -164 -188 -2 -0 -0 -0 -0 -0 -0 -12 -17 -12 -38 -25 -21 -38 -44 -51 -46 -31 -31 -46 -48 -48 -46 -48 -40 -35 -36 -51 -4 -0 -3 -4 -0 -2 -0 -0 -13
-210 -257 -264 -310 -268 -0 -0 -0 -0 -0 -0 -0 -0 -49 -30 -43 -26 -15 -35 -39 -37 -46 -40 -44 -49 -45 -56 -50 -48 -54 -62 -34 -50 -64 -16 -0 -0 -0 -0 -0 -0 -40 -9
-182 -211 -211 -213 -192 -12 -0 -0 -0 -0 -0 -0 -54 -30 -41 -50 -45 -39 -44 -31 -42 -44 -50 -50 -55 -47 -39 -50 -77 -71 -51 -21 -38 -32 -10 -7 -2 -9 -0 -0 -0 -0 -0
-182 -185 -164 -131 -155 -16 -0 -0 -0 -0 -4 -45 -31 -30 -19 -53 -47 -46 -52 -48 -45 -60 -49 -47 -38 -35 -62 -50 -46 -50 -30 -31 -32 -33 -37 -1 -0 -0 -0 -0 -0 -0 -0
-107 -198 -131 -120 -185 -12 -14 -0 -0 -15 -30 -40 -25 -22 -0 -43 -43 -44 -49 -54 -42 -41 -39 -37 -63 -42 -44 -56 -48 -31 -40 -27 -6 -0 -0 -0 -0 -0 -3 -11 -0 -0 -0
-99 -126 -90 -166 -0 -36 -28 -6 -26 -27 -32 -26 -17 -18 -0 -4 -40 -50 -39 -56 -26 -25 -28 -22 -11 -1 -4 -1 -13 -22 -24 -19 -0 -0 -22 -0 -9 -0 -0 -0 -0 -0 -0
-80 -124 -135 -111 -32 -23 -27 -16 -33 -29 -40 -21 -18 -0 -0 -73 -39 -46 -26 -20 -37 -37 -16 -10 -2 -0 -0 -6 -1 -3 -0 -0 -5 -0 -2 -3 -2 -0 -0 -0 -0 -0 -0
-139 -181 -159 -0 -0 -11 -22 -36 -33 -26 -25 -19 -17 -0 -0 -82 -32 -32 -31 -55 -24 -27 -9 -2 -1 -13 -13 -6 -0 -15 -2 -0 -0 -0 -0 -0 -0 -0 -0 -0 -0 -0 -0
-188 -143 -158 -28 -0 -0 -0 -0 -33 -0 -32 -26 -20 -0 -76 -55 -17 -19 -39 -36 -22 -17 -4 -0 -0 -22 -2 -37 -21 -24 -0 -0 -0 -0 -0 -4 -0 -0 -1 -0 -0 -0 -0
-154 -123 -133 -164 -0 -0 -0 -10 -17 -59 -0 -28 -0 -0 -0 -58 -12 -8 -14 -26 -0 -0 -1 -0 -0 -0 -0 -1 -4 -2 -0 -0 -1 -0 -0 -0 -0 -0 -10 -0 -0 -0 -0
-148 -114 -115 -115 -119 -0 -0 -0 -58 -20 -0 -0 -0 -0 -0 -0 -9 -2 -2 -0 -0 -0 -3 -1 -0 -6 -0 -3 -4 -4 -4 -2 -2 -1 -5 -4 -6 -5 -5 -0 -0 -0 -0
-152 -139 -113 -94 -10 -0 -0 -0 -13 -32 -0 -0 -0 -0 -0 -0 -0 -0 -0 -0 -0 -3 -9 -21 -0 -40 -35 -2 -2 -0 -0 -0 -0 -0 -0 -0 -0 -0 -0 -0 -0 -0 -0
-163 -164 -111 -109 -100 -63 -95 -0 -43 -46 -55 -0 -0 -0 -0 -0 -0 -0 -0 -0 -0 -0 -19 -3 -17 -0 -0 -0 -3 -3 -2 -33 -72 -0 -0 -0 -0 -0 -0 -0 -0 -0 -0
-164 -192 -123 -95 -101 -100 -92 -72 -88 -0 -0 -0 -0 -0 -0 -0 -0 -0 -0 -0 -0 -0 -0 -0 -0 -16 -0 -0 -0 -7 -1 -7 -1 -0 -0 -0 -0 -0 -0 -0 -0 -31 -7
-188 -221 -135 -144 -118 -146 -140 -143 -134 -91 -73 -0 -0 -0 -0 -0 -0 -0 -0 -0 -0 -0 -0 -0 -1 -0 -0 -0 -0 -0 -0 -0 -0 -0 -0 -0 -0 -0 -0 -0 -0 -23 -21
-217 -221 -140 -149 -131 -124 -181 -214 -201 -205 -203 -151 -140 -0 -0 -0 -0 -0 -0 -0 -0 -0 -0 -0 -0 -0 -0 -0 -0 -0 -0 -0 -0 -0 -0 -0 -0 -0 -0 -0 -0 -0 -0
-178 -216 -171 -171 -138 -132 -174 -3 -221 -0 -163 -248 -153 -153 -212 -0 -0 -0 -0 -0 -0 -0 -0 -0 -0 -0 -0 -0 -0 -0 -0 -0 -0 -0 -0 -0 -0 -0 -0 -0 -0 -0 -0
-9 -235 -198 -203 -162 -141 -157 -215 -0 -0 -0 -0 -209 -177 -187 -264 -166 -283 -272 -0 -0 -0 -0 -0 -0 -0 -0 -0 -0 -0 -0 -0 -0 -0 -0 -0 -0 -0 -0 -0 -0 -0 -0
-0 -0 -247 -234 -199 -181 -153 -188 -220 -225 -242 -0 -333 -216 -195 -229 -268 -254 -326 -308 -0 -0 -0 -0 -0 -0 -0 -0 -0 -0 -0 -0 -0 -0 -0 -0 -0 -0 -0 -0 -0 -0 -0
-0 -0 -279 -250 -227 -200 -183 -190 -207 -222 -284 -298 -270 -269 -285 -232 -289 -307 -0 -411 -359 -343 -0 -0 -0 -0 -0 -0 -0 -0 -0 -0 -0 -0 -0 -0 -0 -0 -75 -55 -36 -32 -26
-37 -0 -0 -290 -235 -210 -197 -204 -227 -243 -223 -230 -246 -243 -227 -236 -272 -292 -320 -0 -0 -231 -369 -333 -0 -0 -0 -0 -0 -0 -0 -0 -0 -0 -0 -0 -0 -0 -0 -0 -61 -109 -89
-86 -101 -60 -0 -78 -71 -66 -64 -71 -118 -267 -246 -207 -214 -235 -237 -233 -216 -215 -226 -153 -0 -466 -437 -401 -368 -0 -0 -0 -0 -0 -0 -0 -0 -0 -0 -0 -106 -0 -0 -0 -0 -0
-158 -79 -79 -73 -87 -78 -79 -76 -69 -48 -59 -77 -0 -20 -37 -222 -211 -216 -224 -217 -247 -271 -0 -0 -0 -0 -0 -0 -0 -0 -0 -0 -0 -0 -4 -194 -179 -158 -140 -132 -118 -101 -86
-122 -96 -126 -133 -143 -65 -55 -54 -56 -78 -74 -73 -53 -61 -80 -8 -0 -124 -184 -201 -148 -0 -0 -0 -0 -0 -0 -0 -0 -0 -0 -0 -0 -190 -191 -158 -154 -140 -135 -140 -128 -115 -108
-98 -105 -112 -121 -108 -112 -177 -253 -166 -142 -73 -73 -63 -70 -72 -59 -62 -86 -7 -0 -0 -0 -0 -0 -0 -0 -0 -0 -0 -0 -0 -0 -0 -0 -0 -0 -0 -115 -173 -173 -0 -0 -0
Wind_Speed
23 20 20 18 17 20 nan nan nan nan nan nan nan nan nan nan nan nan nan nan nan nan nan 2 4 3 nan 9 6 8 nan nan nan nan 17 21 24 26 29 31 29 24 24
16 18 nan nan nan nan nan nan nan nan nan nan nan nan nan nan nan nan nan nan nan 2 nan 4 4 7 8 9 9 10 nan nan nan nan 16 20 23 23 25 nan 24 30 nan
nan nan nan nan nan nan nan nan nan nan nan nan nan nan nan nan nan nan nan nan nan 1 nan nan 3 1 5 9 12 nan nan nan nan nan nan 18 23 19 nan nan nan nan nan
nan nan nan nan nan nan nan nan nan nan nan nan nan nan nan nan nan nan nan nan nan 4 2 nan 3 3 nan nan nan nan nan nan nan nan nan nan nan nan nan nan nan nan nan
nan nan nan nan nan nan nan nan nan nan nan nan nan nan nan nan nan nan nan nan nan nan 4 3 7 6 nan nan nan nan nan nan nan nan nan nan nan nan nan nan nan nan nan
18 17 16 nan nan nan nan nan nan nan nan nan nan nan nan nan nan nan nan nan nan nan nan nan nan nan nan nan nan nan nan nan nan nan nan nan nan nan nan nan nan nan nan
19 13 11 nan nan nan nan nan nan nan nan nan nan nan nan nan nan nan nan nan nan nan nan nan nan nan nan nan nan nan nan nan nan nan nan nan nan nan nan nan nan nan nan
14 9 nan nan nan nan nan nan nan nan nan nan nan nan nan nan 8 nan nan nan nan nan nan nan nan nan nan nan nan nan nan nan nan nan nan nan nan nan nan nan nan nan nan
10 nan nan nan nan nan nan nan nan nan nan nan nan nan nan nan 14 5 nan nan nan nan nan nan nan nan nan nan nan nan nan nan nan nan nan nan nan nan nan nan nan nan nan
nan nan nan nan nan nan nan nan nan nan nan nan nan nan nan nan 18 nan nan nan nan nan nan nan nan nan nan nan nan nan nan nan nan nan nan nan nan nan nan nan nan nan nan
nan nan nan nan nan nan nan nan nan nan nan nan nan nan nan nan nan nan nan nan nan nan nan nan nan nan nan nan nan nan nan nan nan nan nan nan nan nan nan nan nan nan nan
nan nan nan nan nan nan nan nan nan nan nan nan nan nan nan nan nan nan nan nan nan nan nan nan nan nan nan nan nan nan nan nan nan nan nan nan nan nan nan nan nan nan nan
nan nan nan nan nan nan nan nan nan nan nan nan nan nan nan nan nan nan nan nan nan nan nan nan nan nan nan nan nan nan nan nan nan nan nan nan nan nan nan nan nan nan nan
nan nan nan nan nan nan nan nan nan nan nan nan nan nan nan nan nan nan nan nan nan nan nan nan nan nan nan nan nan nan nan nan nan nan nan nan nan nan nan nan nan nan nan
nan nan nan nan nan nan nan nan nan nan nan nan nan nan nan nan nan nan nan nan nan nan nan nan nan nan nan nan nan nan nan nan nan nan nan nan nan nan nan nan nan nan nan
nan nan nan 7 9 nan nan nan nan nan nan nan nan nan nan nan nan nan nan nan nan nan nan nan nan nan nan nan nan nan nan nan nan nan nan nan nan nan nan nan nan nan nan
nan nan nan 7 10 13 nan nan nan nan nan nan nan nan nan nan nan nan nan nan nan nan nan nan nan nan nan nan nan nan nan nan nan nan nan nan nan nan nan nan nan nan nan
nan nan 4 8 9 12 nan nan nan nan nan nan nan nan nan nan nan nan nan nan nan nan nan nan nan nan nan nan nan nan nan nan nan nan nan nan nan nan nan nan nan nan nan
nan nan nan 9 11 11 11 nan nan nan nan nan 8 10 10 nan nan nan nan nan nan nan nan nan nan nan nan nan nan nan nan nan nan nan nan nan nan nan nan nan nan nan nan
nan nan nan 7 10 11 12 11 nan nan nan nan nan 5 3 4 nan nan nan nan nan nan nan nan nan nan nan nan nan nan nan nan nan nan nan nan nan nan nan nan nan nan nan
nan nan nan nan nan 10 10 10 10 nan nan nan nan nan 7 6 8 nan nan nan nan nan nan nan nan nan nan nan nan nan nan nan nan nan nan nan nan nan nan nan nan nan nan
nan nan nan nan nan nan 12 13 nan nan nan nan nan nan 11 6 6 5 nan nan nan nan nan nan nan nan nan nan nan nan nan nan nan nan nan nan nan nan nan nan nan nan nan
nan nan nan nan nan nan 11 11 nan nan nan nan nan nan nan nan nan nan 9 nan nan nan nan nan nan nan nan nan nan nan nan nan nan nan nan nan nan nan nan nan nan nan nan
29 29 25 nan nan 13 10 10 11 11 12 nan nan nan nan nan nan nan nan nan nan nan nan nan nan nan nan nan nan nan nan nan nan nan nan nan nan nan nan nan nan nan nan
32 31 30 28 27 25 21 17 14 13 12 12 14 14 nan nan nan nan nan nan nan nan nan nan nan nan nan nan nan nan nan nan nan nan nan nan nan nan nan nan nan nan nan
38 35 33 32 33 30 29 27 24 21 19 17 15 14 17 19 17 nan nan nan nan nan nan nan nan nan nan nan nan nan nan nan nan nan nan nan nan nan nan nan nan nan nan
Wind_Direction
283 286 290 292 297 300 nan nan nan nan nan nan nan nan nan nan nan nan nan nan nan nan nan 126 73 104 nan 178 177 168 nan nan nan nan 199 207 208 221 221 222 226 222 222
295 296 nan nan nan nan nan nan nan nan nan nan nan nan nan nan nan nan nan nan nan 41 nan 88 158 199 201 187 181 185 nan nan nan nan 193 203 217 225 226 nan 222 207 nan
nan nan nan nan nan nan nan nan nan nan nan nan nan nan nan nan nan nan nan nan nan 188 nan nan 186 205 165 162 171 nan nan nan nan nan nan 204 205 209 nan nan nan nan nan
nan nan nan nan nan nan nan nan nan nan nan nan nan nan nan nan nan nan nan nan nan 227 215 nan 242 227 nan nan nan nan nan nan nan nan nan nan nan nan nan nan nan nan nan
nan nan nan nan nan nan nan nan nan nan nan nan nan nan nan nan nan nan nan nan nan nan 144 228 225 192 nan nan nan nan nan nan nan nan nan nan nan nan nan nan nan nan nan
321 318 322 nan nan nan nan nan nan nan nan nan nan nan nan nan nan nan nan nan nan nan nan nan nan nan nan nan nan nan nan nan nan nan nan nan nan nan nan nan nan nan nan
321 326 340 nan nan nan nan nan nan nan nan nan nan nan nan nan nan nan nan nan nan nan nan nan nan nan nan nan nan nan nan nan nan nan nan nan nan nan nan nan nan nan nan
331 354 nan nan nan nan nan nan nan nan nan nan nan nan nan nan 146 nan nan nan nan nan nan nan nan nan nan nan nan nan nan nan nan nan nan nan nan nan nan nan nan nan nan
348 nan nan nan nan nan nan nan nan nan nan nan nan nan nan nan 146 133 nan nan nan nan nan nan nan nan nan nan nan nan nan nan nan nan nan nan nan nan nan nan nan nan nan
nan nan nan nan nan nan nan nan nan nan nan nan nan nan nan nan 144 nan nan nan nan nan nan nan nan nan nan nan nan nan nan nan nan nan nan nan nan nan nan nan nan nan nan
nan nan nan nan nan nan nan nan nan nan nan nan nan nan nan nan nan nan nan nan nan nan nan nan nan nan nan nan nan nan nan nan nan nan nan nan nan nan nan nan nan nan nan
nan nan nan nan nan nan nan nan nan nan nan nan nan nan nan nan nan nan nan nan nan nan nan nan nan nan nan nan nan nan nan nan nan nan nan nan nan nan nan nan nan nan nan
nan nan nan nan nan nan nan nan nan nan nan nan nan nan nan nan nan nan nan nan nan nan nan nan nan nan nan nan nan nan nan nan nan nan nan nan nan nan nan nan nan nan nan
nan nan nan nan nan nan nan nan nan nan nan nan nan nan nan nan nan nan nan nan nan nan nan nan nan nan nan nan nan nan nan nan nan nan nan nan nan nan nan nan nan nan nan
nan nan nan nan nan nan nan nan nan nan nan nan nan nan nan nan nan nan nan nan nan nan nan nan nan nan nan nan nan nan nan nan nan nan nan nan nan nan nan nan nan nan nan
nan nan nan 95 100 nan nan nan nan nan nan nan nan nan nan nan nan nan nan nan nan nan nan nan nan nan nan nan nan nan nan nan nan nan nan nan nan nan nan nan nan nan nan
nan nan nan 117 123 118 nan nan nan nan nan nan nan nan nan nan nan nan nan nan nan nan nan nan nan nan nan nan nan nan nan nan nan nan nan nan nan nan nan nan nan nan nan
nan nan 91 107 127 138 nan nan nan nan nan nan nan nan nan nan nan nan nan nan nan nan nan nan nan nan nan nan nan nan nan nan nan nan nan nan nan nan nan nan nan nan nan
nan nan nan 143 137 146 149 nan nan nan nan nan 114 128 139 nan nan nan nan nan nan nan nan nan nan nan nan nan nan nan nan nan nan nan nan nan nan nan nan nan nan nan nan
nan nan nan 180 175 170 171 171 nan nan nan nan nan 71 104 143 nan nan nan nan nan nan nan nan nan nan nan nan nan nan nan nan nan nan nan nan nan nan nan nan nan nan nan
nan nan nan nan nan 198 194 190 186 nan nan nan nan nan 350 13 24 nan nan nan nan nan nan nan nan nan nan nan nan nan nan nan nan nan nan nan nan nan nan nan nan nan nan
nan nan nan nan nan nan 222 219 nan nan nan nan nan nan 276 251 278 313 nan nan nan nan nan nan nan nan nan nan nan nan nan nan nan nan nan nan nan nan nan nan nan nan nan
nan nan nan nan nan nan 247 245 nan nan nan nan nan nan nan nan nan nan 278 nan nan nan nan nan nan nan nan nan nan nan nan nan nan nan nan nan nan nan nan nan nan nan nan
207 210 210 nan nan 230 240 256 261 275 275 nan nan nan nan nan nan nan nan nan nan nan nan nan nan nan nan nan nan nan nan nan nan nan nan nan nan nan nan nan nan nan nan
210 214 221 221 223 224 224 228 232 248 264 271 276 278 nan nan nan nan nan nan nan nan nan nan nan nan nan nan nan nan nan nan nan nan nan nan nan nan nan nan nan nan nan
208 212 219 224 225 229 232 236 237 241 244 242 249 264 282 289 288 nan nan nan nan nan nan nan nan nan nan nan nan nan nan nan nan nan nan nan nan nan nan nan nan nan nan